This demonstration page uses our WeatherBlox Daily Observations layout. Learn more.

Left ArrowRight Arrow

44.8408, -93.29828

Hourly Observations for March 16, 2017

Temp ( °F °C ) Dew Point ( °F °C ) Humidity (%) Winds ( mph kmh ) Pressure ( in mb ) Visibility ( mi km ) Precip ( " mm )
12:53 am 00:53 Cloudy 23 -5 11 -11.7 60 60 SE 6 9 30.29 1026 10 16 0.00 0.00
1:53 am 01:53 Partly Cloudy 21 -6.1 11 -11.7 65 65 SE 7 11 30.28 1025 10 16 0.00 0.00
2:53 am 02:53 Cloudy 21 -6.1 12 -11.1 68 68 SE 7 11 30.28 1025 10 16 0.00 0.00
3:53 am 03:53 Mostly Cloudy 20 -6.7 12 -11.1 71 71 SSE 3 6 30.27 1025 10 16 0.00 0.00
4:53 am 04:53 Cloudy 21 -6.1 12 -11.1 68 68 SE 6 9 30.25 1025 10 16 0.00 0.00
5:53 am 05:53 Mostly Cloudy 22 -5.6 13 -10.6 68 68 SE 8 13 30.24 1024 10 16 0.00 0.00
6:53 am 06:53 Mostly Clear 22 -5.6 12 -11.1 66 66 SE 7 11 30.22 1024 10 16 0.00 0.00
7:53 am 07:53 Mostly Sunny 22 -5.6 12 -11.1 66 66 SE 10 17 30.22 1023 10 16 0.00 0.00
8:53 am 08:53 Mostly Sunny 24 -4.4 12 -11.1 60 60 SSE 9 15 30.20 1023 10 16 0.00 0.00
9:53 am 09:53 Mostly Sunny 27 -2.8 13 -10.6 55 55 SE 12 19 30.19 1023 10 16 0.00 0.00
10:53 am 10:53 Mostly Sunny 32 0 15 -9.4 50 50 SE 12 19 30.18 1022 10 16 0.00 0.00
11:53 am 11:53 Partly Cloudy 36 2.2 18 -7.8 48 48 SSE 9 15 30.17 1022 10 16 0.00 0.00
12:53 pm 12:53 Partly Cloudy 38 3.3 19 -7.2 46 46 SSE 21 33 30.15 1021 10 16 0.00 0.00
1:53 pm 13:53 Mostly Cloudy 39 3.9 20 -6.7 46 46 SSE 15 24 30.13 1020 10 16 0.00 0.00
2:53 pm 14:53 Mostly Cloudy 40 4.4 22 -5.6 49 49 SSE 15 24 30.10 1019 10 16 0.00 0.00
3:53 pm 15:53 Cloudy 39 3.9 21 -6.1 48 48 SE 20 31 30.08 1019 10 16 0.00 0.00
4:53 pm 16:53 Cloudy with Light Rain 38 3.3 23 -5 55 55 SE 21 33 30.06 1018 10 16 0.00 0.03
5:53 pm 17:53 Cloudy 38 3.3 24 -4.4 57 57 SE 17 28 30.04 1017 10 16 0.00 0.03
6:53 pm 18:53 Cloudy with Drizzle 37 2.8 23 -5 57 57 SE 18 30 30.02 1017 10 16 0.00 0.03
7:53 pm 19:53 Cloudy 36 2.2 22 -5.6 57 57 SE 22 35 30.01 1016 10 16 0.00 0.03
8:53 pm 20:53 Cloudy with Drizzle 36 2.2 24 -4.4 62 62 SSE 13 20 30.04 1017 10 16 0.00 0.03
9:53 pm 21:53 Cloudy 35 1.7 25 -3.9 67 67 SSE 12 19 30.01 1016 10 16 0.00 0.03
10:53 pm 22:53 Cloudy 35 1.7 25 -3.9 67 67 SE 14 22 29.97 1015 10 16 0.00 0.03
11:53 pm 23:53 Cloudy 35 1.7 25 -3.9 67 67 SE 10 17 29.93 1014 10 16 0.00 0.00

Powered by AerisWeather